Theta_e
338 339 339 339 338 337 336 335 335 333 331 331 331 328 326 325 326 327 327 328 328 329 331 331 330 329 329 333 334 332 332 331 331 330 331 333 333 339 347 349 348 348 351 351 353 349 348 347 344 344 345 345 344 344 344 343 343 342 342 342 342 341 342 342 342 341 341 340 339 339 339 339 340 338 338 338 337 336 336 337 338 338 337 337 337
337 337 337 338 338 337 336 335 334 333 332 331 330 329 328 325 325 326 327 327 328 329 334 333 335 337 336 336 335 333 331 332 332 332 333 335 336 340 345 349 348 348 349 352 352 350 350 349 346 346 346 345 344 344 343 343 342 341 341 341 341 341 341 341 341 341 341 340 339 339 339 339 339 338 338 337 337 337 337 337 338 337 337 337 337
335 333 332 335 337 337 336 335 333 332 332 332 329 330 328 328 327 326 326 326 328 329 333 335 337 337 337 333 332 333 333 333 335 335 336 336 335 337 342 349 348 347 348 349 351 350 349 348 347 346 345 344 343 343 341 340 341 340 340 340 339 339 339 339 340 340 340 340 339 339 339 339 339 339 338 338 337 337 337 337 337 338 338 336 335
333 332 331 331 333 335 335 334 334 332 332 331 330 330 329 328 328 327 328 328 330 333 335 336 336 335 333 332 333 335 334 334 335 335 335 334 334 334 336 347 349 346 347 348 348 350 350 347 345 344 344 343 342 341 341 340 340 340 340 339 338 338 338 338 338 338 338 338 339 338 338 338 338 338 338 338 338 337 337 337 337 336 336 336 336
333 333 335 331 331 332 332 333 333 332 331 331 331 329 329 330 329 330 330 333 334 335 335 335 333 331 331 335 334 335 335 334 334 332 332 332 332 333 335 343 347 346 346 348 347 349 349 346 344 344 343 341 342 340 339 339 338 338 339 339 338 338 338 338 337 337 337 337 337 337 337 337 337 338 337 337 337 337 337 337 336 336 336 336 336
334 332 332 331 331 331 331 332 332 331 331 331 330 329 328 327 328 329 334 336 334 334 333 332 332 332 333 333 332 334 333 333 332 332 331 331 332 335 338 341 343 345 345 346 346 346 347 347 345 343 342 341 342 341 340 340 339 339 339 338 337 337 337 337 337 337 336 337 337 337 337 337 337 337 337 337 337 336 336 336 336 336 336 336 335
335 334 331 330 330 330 331 332 332 331 331 330 330 329 328 328 330 330 330 332 333 334 333 331 332 332 333 332 332 334 332 332 332 330 329 330 332 333 336 338 340 342 344 344 345 345 346 345 344 341 340 341 340 339 338 338 338 338 338 337 336 335 335 336 336 336 336 336 336 336 337 336 336 337 336 336 336 336 336 336 336 336 336 336 337
335 334 333 330 330 330 331 332 332 331 331 330 330 329 329 329 331 330 330 331 333 332 330 331 331 332 332 331 330 334 331 330 329 329 328 328 329 332 334 336 337 340 341 340 342 345 344 343 342 341 339 339 339 339 338 339 338 337 336 335 334 333 332 333 334 335 335 335 335 336 336 336 336 336 336 335 336 336 336 335 335 335 335 335 335
335 334 333 331 329 329 330 331 332 332 331 330 331 331 331 331 331 333 332 332 332 332 331 330 331 330 329 329 329 330 330 330 330 330 328 328 329 330 334 340 344 341 337 338 340 341 341 340 339 338 338 338 337 337 336 337 337 336 336 334 333 332 331 332 332 333 334 334 335 335 335 335 335 336 335 335 335 336 335 335 335 335 335 335 335
336 335 333 332 331 329 329 330 331 331 331 330 331 332 332 333 332 335 334 332 330 331 331 330 330 329 327 327 325 325 328 329 330 332 328 328 329 332 334 334 334 335 336 337 337 337 337 336 336 335 335 334 334 335 335 335 335 336 335 333 332 331 331 333 332 332 333 334 334 333 333 333 333 333 334 334 334 333 334 333 332 332 332 332 332
335 335 333 333 332 330 330 330 331 331 331 331 331 332 333 333 334 334 335 331 331 330 331 329 328 325 325 324 324 326 327 329 325 326 328 331 334 333 332 332 332 333 334 335 334 333 332 332 331 331 331 332 331 331 331 331 331 332 333 332 331 330 330 332 333 332 332 333 333 332 331 330 330 329 330 331 332 332 332 332 331 331 330 330 330
334 334 334 334 332 331 331 331 331 332 332 331 331 333 334 334 332 333 332 334 332 330 328 327 322 320 325 324 325 328 328 326 326 326 327 327 329 330 330 330 331 332 332 332 331 330 329 329 329 328 329 329 329 329 328 328 328 328 329 330 330 329 331 331 333 333 332 332 331 330 329 329 328 329 329 328 329 329 329 329 329 329 329 329 328
335 334 333 336 333 332 331 330 332 333 333 333 333 334 335 336 335 335 333 331 331 328 326 323 323 324 318 322 325 326 328 326 325 325 325 326 328 328 329 329 330 330 329 329 328 327 326 326 325 325 325 324 324 326 326 326 326 326 327 327 329 330 330 330 332 332 331 330 329 329 327 327 327 326 326 326 326 326 326 326 326 326 326 326 326
336 333 334 333 333 332 330 331 332 332 333 334 333 337 335 334 333 332 330 332 330 329 327 324 320 319 320 319 322 323 326 323 323 324 326 327 327 328 328 328 328 328 328 327 326 325 325 325 325 325 325 325 324 324 324 324 323 323 324 325 327 328 329 331 332 331 331 328 327 326 325 325 325 324 324 324 324 324 324 325 325 324 324 323 323
334 334 333 332 333 333 332 331 332 334 333 332 333 334 334 334 333 334 330 328 329 328 325 324 320 318 318 319 315 316 321 320 322 322 323 324 327 328 328 328 328 328 327 325 324 323 323 324 323 323 323 323 323 322 323 323 322 322 322 324 325 327 327 330 330 328 329 327 325 324 323 323 322 322 322 322 322 322 322 322 322 322 322 321 321
333 334 333 333 333 333 333 332 332 333 333 332 332 333 333 333 333 333 332 329 326 327 328 322 319 318 317 314 314 314 314 316 317 319 321 322 324 326 328 327 327 327 325 323 322 322 322 323 322 322 322 321 321 321 321 321 320 320 322 322 323 324 326 328 329 329 329 327 325 323 321 321 321 320 320 320 320 320 320 320 320 320 320 321 321
333 333 334 333 333 333 333 332 332 331 333 332 332 333 334 335 335 333 331 331 325 323 325 323 319 324 319 313 314 315 312 315 315 315 318 319 321 326 327 326 326 324 322 321 321 321 321 321 321 321 321 320 320 320 320 320 320 321 320 322 322 323 324 326 328 329 328 327 325 322 320 320 319 319 319 318 319 319 319 319 320 320 320 320 320
333 333 334 334 333 333 333 332 331 331 333 333 333 333 333 334 334 334 330 329 330 323 322 325 324 323 318 317 318 315 314 314 313 310 317 318 320 323 324 324 325 322 321 320 320 320 321 320 321 321 321 321 321 321 321 321 321 320 320 320 321 321 321 322 326 327 327 326 324 323 320 319 319 318 318 318 318 318 317 318 318 318 318 319 318
332 333 334 335 334 333 333 332 332 332 334 333 332 333 333 334 335 333 332 328 328 325 323 322 322 322 321 321 321 317 318 317 313 311 310 314 318 318 320 322 322 320 319 319 319 319 320 321 320 320 320 321 321 320 320 320 319 319 320 320 320 320 320 320 320 324 325 324 323 322 321 320 319 318 318 318 317 317 317 317 317 316 317 317 318
332 333 334 335 334 333 333 332 332 332 335 334 334 334 333 333 334 333 330 328 329 327 323 322 322 320 322 319 321 318 315 314 315 315 311 311 313 317 318 319 319 319 319 318 318 318 318 318 319 319 319 319 319 319 319 319 318 318 318 319 319 319 319 319 319 319 320 322 322 322 321 320 319 318 318 318 317 317 317 316 316 316 317 316 317
332 333 333 334 336 334 333 332 332 332 336 334 333 333 333 332 331 329 328 328 327 327 324 322 320 319 316 315 315 315 314 314 314 313 311 309 308 310 313 316 317 317 318 318 318 318 318 318 319 318 320 319 318 319 319 318 318 318 318 318 318 318 318 318 318 318 318 318 319 320 320 320 320 319 319 318 317 316 316 316 316 316 316 315 316
330 332 333 334 334 334 333 333 333 333 335 334 333 332 332 331 330 328 326 325 325 327 326 323 320 320 319 317 314 314 315 315 313 311 311 312 310 310 313 314 312 314 317 317 318 318 319 319 318 317 317 317 318 318 318 319 319 318 317 317 317 317 317 317 317 317 317 317 317 318 319 319 318 319 318 317 317 316 315 315 316 315 315 315 315
330 331 332 333 333 334 333 333 333 334 335 333 332 332 330 327 326 327 326 325 323 325 323 322 320 319 317 318 317 317 316 314 313 311 312 309 311 311 312 313 313 311 315 318 318 317 318 317 316 316 316 317 317 318 317 318 319 318 317 316 316 316 316 315 316 316 316 316 316 316 317 318 318 318 318 317 316 316 315 314 315 315 314 314 315
329 330 331 332 333 333 334 333 333 332 333 333 332 331 328 328 327 327 325 325 324 323 321 319 319 318 317 317 317 316 313 315 315 314 314 312 313 311 311 311 311 311 314 315 316 316 316 316 316 315 315 315 316 317 318 319 320 317 318 317 315 315 314 314 314 314 315 315 315 316 317 317 317 317 316 316 315 315 314 314 313 313 313 313 314
328 330 331 331 332 332 332 332 332 332 333 332 331 330 328 327 327 326 324 322 322 321 320 319 319 318 317 315 315 315 315 313 314 312 311 313 313 310 310 309 309 310 312 313 312 314 315 315 316 315 315 315 316 317 317 318 319 318 317 317 316 316 316 315 314 313 313 313 314 315 315 315 315 315 315 315 314 314 314 312 311 310 311 311 311
328 330 332 332 332 333 333 333 333 333 333 332 330 329 328 326 327 325 323 322 321 320 319 318 317 317 316 315 315 315 313 313 313 312 312 313 312 312 310 308 310 309 311 311 312 312 312 313 313 314 314 313 314 315 317 316 317 317 316 316 315 315 313 314 314 313 313 312 313 313 313 313 314 313 313 314 313 312 311 311 310 309 310 310 310
329 330 332 333 333 333 332 332 332 331 331 331 330 329 328 326 325 324 323 321 320 319 318 317 316 315 315 315 314 314 313 312 313 312 313 314 313 312 310 306 307 309 309 310 310 309 309 311 311 314 314 315 312 314 314 315 316 316 316 315 314 312 311 312 314 315 314 313 313 312 313 313 313 313 313 313 313 312 311 311 310 309 310 309 309
329 329 331 333 333 333 333 332 332 331 331 330 329 328 326 325 324 323 321 321 319 318 317 317 316 315 315 314 315 313 313 312 312 311 311 312 314 313 312 310 306 304 306 306 307 307 309 311 311 312 313 313 313 313 315 315 315 316 315 313 312 312 310 308 310 313 313 313 313 313 313 313 313 312 313 313 313 312 311 311 309 309 309 309 309
329 330 330 331 332 333 333 332 331 330 331 330 329 328 326 325 323 321 320 320 319 318 317 316 315 315 314 314 314 313 311 312 312 311 310 310 312 313 313 311 310 307 304 303 305 305 308 308 310 309 310 311 312 311 313 315 315 316 315 312 311 311 309 309 308 310 311 310 310 310 311 312 312 312 312 313 313 312 311 310 309 309 309 309 308
330 330 329 329 330 333 332 331 331 331 330 330 328 326 326 325 323 322 320 320 319 318 317 316 315 314 314 313 313 312 312 312 312 312 311 310 310 311 311 311 311 309 306 304 304 305 308 307 308 308 309 310 310 311 310 311 313 316 313 310 310 310 308 308 308 308 307 307 307 307 310 312 312 312 312 312 313 312 311 310 309 309 309 309 308
329 328 328 328 329 330 331 330 330 328 328 328 326 323 323 322 322 321 319 319 318 316 316 315 314 314 313 312 312 311 311 311 311 311 311 311 309 309 309 310 311 310 308 307 305 307 308 309 308 308 308 307 308 309 309 312 314 315 311 310 309 308 310 311 309 308 307 306 306 309 310 311 312 311 311 312 312 311 311 310 309 308 309 308 307
328 326 327 327 328 330 330 330 327 326 326 326 325 324 323 321 320 318 318 319 317 316 315 315 315 314 313 312 312 312 310 311 310 310 310 310 309 309 308 308 308 308 310 307 307 306 307 308 308 307 307 307 306 307 308 310 314 312 310 309 308 309 311 310 307 306 305 305 305 306 306 307 309 310 311 311 311 310 310 309 308 307 307 307 306
324 326 327 327 329 332 330 330 327 325 326 326 325 323 322 320 319 319 318 318 317 316 316 315 314 314 313 312 311 311 311 311 310 309 309 308 308 308 308 308 307 307 309 308 307 305 306 306 307 307 306 307 306 305 307 308 310 311 311 310 310 310 310 310 310 306 304 305 304 304 303 304 305 308 309 310 310 309 308 306 305 305 306 307 305
326 327 327 328 330 332 331 329 328 326 326 325 324 322 321 319 318 318 317 317 316 316 315 314 314 314 313 312 311 311 311 310 309 309 309 308 308 308 308 308 307 307 306 307 306 306 305 306 306 305 306 305 306 305 306 308 308 309 309 309 310 310 310 310 310 310 305 305 304 303 303 303 302 304 305 305 304 303 303 302 302 302 304 304 302
326 327 327 328 331 331 330 329 327 326 325 324 324 322 321 319 318 318 318 317 316 315 314 314 313 313 312 313 311 311 311 310 310 309 309 308 308 308 307 307 307 306 305 307 307 304 304 304 304 304 304 304 305 304 305 306 307 307 308 308 308 308 308 308 309 309 305 304 303 303 303 303 303 302 302 302 302 301 301 301 301 301 301 301 300
325 326 328 329 330 330 329 328 326 325 324 324 324 323 322 320 319 318 318 317 317 316 315 314 313 312 312 310 309 310 311 310 308 308 308 308 308 308 307 306 307 306 306 306 308 305 304 303 304 304 304 304 303 303 304 305 305 306 307 307 307 307 307 306 306 306 305 304 303 303 303 303 303 302 302 302 302 302 301 302 301 301 300 300 300
326 327 329 329 329 329 329 327 326 324 324 324 324 323 322 321 320 317 317 317 317 317 316 314 314 312 311 310 309 309 310 309 308 308 307 307 307 307 306 307 306 307 307 307 307 307 305 304 303 303 303 303 303 303 303 304 304 304 305 305 305 305 306 306 306 306 304 303 303 303 302 302 303 302 302 302 302 301 301 301 301 301 301 301 301
325 328 329 329 329 329 328 327 325 323 323 324 324 322 321 320 318 318 318 317 316 316 315 314 313 311 311 309 309 309 309 309 307 307 307 307 306 307 307 307 307 306 306 306 307 306 306 304 303 302 302 301 301 301 302 302 303 304 303 304 304 304 305 306 306 305 305 304 304 306 303 303 303 302 301 302 301 301 301 301 301 301 301 301 301
326 327 328 328 328 328 327 327 325 323 323 323 323 321 320 319 318 317 317 315 315 315 314 313 311 311 310 309 308 309 309 308 307 307 307 307 308 307 308 307 306 306 305 305 305 304 304 302 300 300 300 300 300 301 301 300 301 302 302 303 304 304 304 304 305 305 304 304 303 302 302 303 303 303 302 301 301 301 301 301 301 302 302 302 301
325 326 327 327 327 326 325 325 323 323 322 321 320 320 319 318 317 316 315 314 312 311 309 308 308 308 309 309 309 308 309 308 308 307 307 307 306 306 304 305 305 305 304 303 303 303 302 301 300 299 299 299 299 299 299 299 301 301 300 300 301 302 303 303 303 302 303 303 302 303 303 303 303 302 301 300 300 301 301 301 302 303 302 301 300
325 325 326 326 325 325 324 323 322 322 321 320 319 318 318 317 315 314 313 312 310 307 306 305 304 305 305 306 305 306 310 309 309 308 307 307 307 306 305 305 305 305 303 303 302 301 301 301 299 298 298 298 298 298 300 299 300 301 299 297 299 299 299 302 304 302 301 301 302 302 303 302 302 303 302 303 304 303 303 301 302 301 301 299 299
324 324 324 324 323 323 321 320 320 320 320 319 318 313 313 316 314 312 311 310 308 307 306 304 304 305 306 307 311 312 312 310 308 304 302 303 306 308 306 304 305 304 303 302 301 301 301 300 299 298 298 297 297 297 297 299 299 298 299 298 299 299 301 302 301 302 301 302 300 300 302 301 301 302 301 302 303 302 302 303 302 301 300 299 298
324 324 324 324 323 323 322 320 319 319 319 317 305 302 303 307 312 311 309 308 307 306 306 305 305 305 305 306 307 311 310 308 305 300 300 300 301 301 301 303 305 305 303 302 301 301 302 300 297 297 298 297 298 295 297 298 296 297 297 295 295 296 298 299 299 301 301 301 300 298 301 300 300 300 301 301 302 302 302 302 299 298 298 298 298
324 325 324 324 323 322 321 320 319 318 317 308 300 301 301 302 307 311 308 306 305 305 305 305 305 304 303 302 302 303 302 303 303 302 302 298 297 297 297 298 299 300 301 303 302 300 300 299 297 297 297 297 297 295 295 295 298 297 295 294 295 295 295 296 297 298 301 301 300 298 298 300 298 300 300 302 302 301 301 299 297 297 297 297 297
324 324 323 323 322 321 321 319 318 317 315 301 299 299 299 299 300 306 307 306 304 303 303 304 303 303 302 302 303 304 307 309 305 300 302 302 299 298 299 298 297 297 296 297 299 305 303 301 299 296 296 296 296 298 299 298 297 299 298 297 294 293 294 296 296 295 301 300 300 297 296 299 298 299 299 302 301 300 301 298 297 297 297 297 297
324 323 322 321 321 320 320 319 317 316 314 301 298 298 298 298 298 302 306 304 303 303 303 303 303 302 302 303 304 303 302 302 301 301 302 302 303 303 303 302 303 301 296 295 295 296 300 302 300 299 297 299 300 299 301 299 299 299 299 299 297 296 295 298 299 299 300 299 300 298 295 299 297 298 299 302 302 301 301 298 296 296 296 296 296
323 321 321 320 319 319 319 318 317 316 312 298 297 297 296 297 297 301 305 304 303 302 302 302 302 302 302 303 304 302 301 301 302 301 302 301 301 301 301 301 301 300 300 300 301 301 301 299 301 301 300 299 300 300 300 298 302 301 301 300 300 299 298 297 295 295 297 297 299 298 296 299 296 298 300 301 301 300 301 298 296 296 296 296 295
323 322 321 320 319 318 318 318 317 316 309 296 296 296 296 296 298 305 304 303 302 301 302 302 302 302 303 304 303 301 301 301 302 297 300 302 301 301 300 300 299 299 299 297 295 299 301 301 301 302 301 300 298 299 297 297 298 299 301 299 297 297 298 298 300 296 298 297 297 299 297 297 296 297 299 301 299 300 302 301 297 296 296 295 295
320 320 319 318 319 318 317 317 317 315 309 298 295 296 296 296 300 305 304 303 302 301 301 302 302 302 303 303 303 302 301 302 298 294 295 300 301 300 300 299 299 299 299 300 295 293 293 294 294 294 293 294 294 293 292 291 296 297 299 299 299 296 298 298 297 298 300 297 297 298 297 296 298 297 298 300 299 298 301 302 302 297 296 294 294
320 319 319 319 318 318 317 317 317 315 311 300 295 296 296 297 303 305 303 303 302 301 301 302 302 303 304 306 304 302 301 301 294 293 295 300 301 300 299 299 299 299 299 300 300 299 294 293 293 293 293 293 293 293 293 293 292 297 302 300 299 298 298 297 297 298 298 298 298 297 297 297 297 295 297 298 297 297 298 300 299 300 297 295 295
320 320 318 317 316 316 317 317 315 315 310 301 295 295 296 297 304 306 304 302 301 301 301 301 302 303 305 307 305 303 303 300 292 293 294 301 301 301 300 299 298 298 299 299 300 300 301 301 301 301 300 298 300 299 300 294 293 298 301 302 298 299 299 298 297 297 297 298 296 297 297 298 297 297 295 297 297 300 297 297 300 301 301 299 298
Wind_Speed
7 5 4 6 4 5 3 4 3 3 2 3 3 3 2 1 2 2 2 3 3 4 4 4 3 3 4 4 4 4 4 3 3 2 2 2 3 3 3 2 4 6 7 5 5 5 3 2 3 5 7 7 7 9 11 12 11 11 11 11 11 10 10 10 9 8 6 6 6 6 7 7 5 6 7 9 9 9 10 11 11 11 10 10 10
7 5 5 5 7 5 3 3 4 3 3 4 3 3 3 2 2 2 3 3 3 3 3 4 4 3 3 3 4 3 3 3 3 3 3 2 3 3 5 1 6 7 7 5 7 5 4 5 6 7 8 9 10 9 11 12 12 11 11 11 10 10 10 10 10 11 10 9 7 5 6 7 7 6 7 7 9 9 9 10 10 11 11 11 10
6 5 5 5 5 5 5 3 4 4 3 4 2 3 3 3 3 3 3 3 4 3 3 4 3 4 3 4 3 3 3 3 3 4 3 3 3 3 3 1 6 7 6 7 7 6 6 8 8 8 9 9 10 10 11 12 11 12 11 11 11 11 11 11 11 11 11 10 10 9 8 8 7 7 7 7 7 8 8 9 9 10 10 8 10
6 5 5 5 4 4 4 4 5 4 4 4 3 3 4 4 4 4 4 3 4 4 3 3 5 4 3 3 2 2 3 3 2 2 2 3 3 3 2 3 6 8 9 9 8 5 7 9 8 9 9 9 10 11 10 10 11 12 12 11 10 10 11 11 11 11 11 10 10 9 9 9 9 8 8 8 8 8 6 7 7 9 11 10 7
6 6 5 5 5 5 5 5 5 4 3 4 4 3 3 4 4 3 3 2 3 4 3 3 4 4 1 1 2 1 1 1 1 1 1 1 2 1 2 3 4 8 9 9 8 7 9 9 8 9 9 9 13 12 9 11 11 11 11 10 10 11 11 11 10 10 11 10 10 9 9 9 9 9 8 8 7 8 7 7 8 8 10 10 10
6 5 5 5 5 5 5 5 5 5 4 4 4 4 4 4 3 2 2 1 3 4 3 3 2 1 2 2 3 2 1 0 1 2 2 2 1 3 3 3 4 4 5 8 8 8 10 9 9 10 9 11 12 12 10 11 11 11 11 11 11 11 11 11 10 10 10 10 10 10 9 9 9 8 8 8 8 8 8 7 6 8 8 9 10
6 6 6 5 5 5 5 6 5 4 5 5 5 4 4 4 2 3 2 2 1 3 2 3 2 2 2 1 2 2 2 1 2 1 3 3 2 3 3 4 4 4 4 3 6 9 9 10 11 9 11 12 11 10 11 9 11 11 11 11 11 11 10 10 10 11 10 10 10 10 10 10 10 9 9 9 9 9 9 9 8 9 9 9 9
7 6 6 5 5 5 6 5 5 4 5 4 4 4 4 3 3 3 3 3 2 3 3 2 2 2 2 2 2 2 1 2 2 2 2 3 3 3 3 3 4 4 6 5 6 9 14 12 11 12 12 12 13 11 10 10 11 11 11 11 10 10 9 9 10 10 9 9 9 10 11 12 12 12 12 12 12 13 12 12 12 12 12 12 12
7 7 6 5 5 5 6 6 4 4 4 3 4 4 4 4 3 4 4 4 4 5 2 2 2 2 3 3 3 4 2 2 2 2 1 4 3 3 4 5 6 7 5 7 8 9 14 17 16 15 15 15 13 13 11 12 11 11 11 10 10 10 10 10 9 9 9 10 11 11 13 13 13 14 15 14 15 17 17 16 15 15 14 14 14
7 6 6 5 5 6 6 5 4 4 4 3 4 3 4 4 4 3 3 4 5 4 3 1 0 3 3 4 4 3 2 3 3 3 3 4 4 4 4 5 6 6 8 8 9 8 8 13 16 16 16 15 14 14 13 13 12 11 11 11 11 11 11 10 9 8 10 11 13 14 14 15 16 18 18 18 18 18 17 17 18 18 18 18 17
7 6 6 5 5 5 6 5 4 4 4 4 3 4 4 4 4 3 1 3 4 5 4 4 2 3 4 5 4 3 2 3 3 4 4 4 4 4 6 6 5 8 9 9 7 8 9 7 6 6 9 15 13 13 13 13 13 13 12 12 12 11 10 10 10 10 11 12 16 17 17 17 17 16 17 18 18 18 18 17 18 19 19 18 18
7 6 6 6 5 6 6 4 4 5 5 4 4 4 6 5 5 5 5 2 1 3 3 4 3 5 4 5 5 4 5 3 5 5 4 4 4 5 6 5 6 9 9 8 7 8 8 7 6 6 6 10 14 13 14 14 13 13 13 12 11 9 8 9 11 13 13 15 18 17 17 17 17 17 18 17 17 18 19 18 17 16 17 19 18
6 7 7 6 6 5 4 4 5 5 5 6 6 6 6 6 4 4 5 4 2 2 2 3 3 2 4 6 5 5 5 6 6 6 5 3 4 6 4 6 8 9 8 8 9 8 7 6 6 5 5 5 7 12 13 14 13 13 13 12 11 9 8 8 10 12 14 15 17 17 17 18 18 18 18 18 18 18 18 18 18 17 17 18 18
7 7 7 7 6 5 5 5 5 5 5 5 4 5 5 4 4 3 0 4 4 4 3 2 3 2 1 2 4 4 4 7 7 7 6 6 6 6 5 8 9 8 7 8 8 9 8 6 5 5 5 5 5 5 6 7 9 13 12 12 11 11 8 9 11 13 15 15 16 18 19 18 18 19 19 18 18 18 17 18 18 18 18 18 18
6 6 6 7 7 6 6 6 6 5 4 4 4 5 5 6 7 6 3 1 2 1 3 1 3 2 2 4 1 1 3 5 4 8 7 6 5 6 6 9 9 7 7 7 7 6 5 5 6 5 5 5 4 4 5 6 8 11 12 12 12 15 8 11 10 12 13 16 17 18 18 18 18 18 17 17 17 16 16 16 16 16 16 16 17
6 6 6 7 8 7 6 6 6 5 6 6 5 6 5 5 5 5 5 4 2 2 2 3 4 6 0 1 2 3 2 2 4 6 6 8 7 5 7 8 9 8 5 8 6 5 5 5 6 5 4 5 4 4 4 4 8 9 11 12 13 14 11 10 11 13 13 17 18 18 17 18 17 18 18 18 18 17 17 17 16 16 16 17 17
6 7 7 8 6 6 6 5 5 5 5 5 6 7 7 7 7 6 6 6 5 2 2 3 4 0 6 4 2 1 3 3 2 6 6 7 8 7 8 7 8 7 6 6 5 5 5 6 5 5 5 4 4 4 3 4 4 5 7 11 13 15 17 12 12 13 16 18 19 18 17 18 18 18 18 18 18 18 18 18 18 18 18 18 18
6 7 6 5 6 6 6 6 6 5 6 6 6 5 5 6 7 7 7 5 6 5 3 3 4 3 2 2 4 3 5 4 2 3 3 7 7 8 7 7 6 7 6 6 5 5 5 5 4 5 4 3 3 3 2 3 4 3 5 8 13 14 15 15 13 14 14 17 16 17 17 17 18 18 20 20 20 20 20 19 19 19 18 19 19
6 6 5 6 6 6 7 6 6 7 6 6 6 7 6 7 5 5 7 5 5 5 6 4 4 4 3 3 4 2 5 6 3 5 3 4 7 6 6 7 6 6 6 5 5 5 4 4 4 4 3 2 2 2 3 4 6 7 11 12 12 12 13 13 12 12 14 15 14 15 15 17 17 18 19 20 20 19 20 20 20 20 20 20 19
6 6 6 6 6 6 6 6 7 7 7 7 7 7 5 4 4 5 4 5 6 6 6 7 7 3 2 3 4 4 4 3 5 6 5 5 3 5 6 6 6 5 4 5 5 5 5 4 4 3 2 2 2 3 3 3 3 4 5 11 11 11 11 12 12 12 11 12 14 14 16 16 17 18 19 19 19 19 19 20 20 21 21 21 21
6 6 6 7 7 7 7 7 6 6 6 6 6 6 7 6 5 5 5 4 2 3 7 6 6 6 5 3 4 4 4 4 3 4 4 5 1 2 5 4 5 4 3 3 3 3 3 3 3 3 3 2 2 2 2 2 3 3 5 8 9 10 10 11 11 10 10 11 12 13 14 16 17 18 19 18 19 18 18 19 20 20 20 21 21
5 6 6 6 7 7 7 8 8 7 6 7 6 6 5 5 2 6 9 6 4 5 3 6 5 6 6 6 4 3 4 2 3 4 5 4 7 6 7 8 7 2 2 2 3 3 3 3 3 3 2 1 2 2 1 1 2 2 4 7 7 8 9 10 11 11 10 10 11 12 13 15 16 17 18 18 18 17 18 19 19 20 20 20 21
5 5 6 6 6 6 7 7 6 6 6 6 6 5 4 5 6 8 8 8 6 4 4 4 5 6 6 6 7 7 6 5 5 3 4 4 6 6 5 1 6 7 2 2 2 3 3 2 3 2 1 1 1 1 1 0 2 2 4 5 6 7 8 8 8 9 9 11 11 11 13 13 15 16 17 17 17 18 19 19 19 20 21 21 21
5 5 6 6 6 6 6 6 6 6 6 5 4 5 5 5 5 6 6 4 5 7 6 6 6 5 5 4 5 5 4 5 6 6 6 6 8 9 7 5 4 2 3 2 2 2 2 2 2 1 1 1 1 1 2 1 1 3 2 3 4 4 6 6 6 6 7 8 10 12 12 12 13 15 15 16 17 18 20 20 21 21 21 21 21
5 6 6 7 6 6 7 7 6 6 5 5 4 4 3 4 6 6 6 7 7 8 6 6 7 7 6 3 4 4 4 2 5 5 3 7 8 9 2 2 4 5 3 3 2 0 1 2 2 1 2 1 1 2 2 1 1 2 2 1 1 3 2 3 3 4 5 6 7 8 9 11 12 13 14 15 16 18 20 20 20 20 20 20 20
8 9 8 8 7 8 8 8 7 6 5 5 6 6 5 3 5 7 8 7 6 7 6 6 5 5 5 5 4 4 4 4 5 6 7 8 7 9 7 3 3 5 2 2 3 2 1 1 2 2 2 2 2 2 2 2 2 4 3 2 2 1 2 2 1 1 2 3 4 4 6 7 8 10 11 13 16 17 18 19 20 20 19 20 20
8 8 7 8 9 7 8 7 7 5 5 6 7 7 6 3 4 6 4 4 6 7 6 7 6 7 5 6 5 4 5 4 5 5 6 7 9 10 11 10 4 2 3 1 3 2 3 1 2 2 2 2 3 3 3 2 3 4 4 2 2 2 2 3 4 3 2 2 1 2 4 5 6 8 10 12 14 16 18 19 19 18 19 19 20
6 6 7 7 7 8 7 7 6 6 8 8 8 7 7 8 6 5 6 3 6 7 7 6 7 7 7 5 6 5 4 4 3 4 4 5 7 8 9 10 12 7 2 4 2 1 2 3 1 1 2 2 2 2 4 4 3 6 5 2 2 3 3 2 4 4 4 5 6 5 4 5 5 7 9 12 14 15 16 17 18 18 18 19 20
6 5 5 5 6 7 7 7 6 7 8 9 9 7 7 8 7 6 7 6 5 8 7 7 6 6 6 7 6 5 4 3 3 4 4 4 6 7 8 10 9 10 8 6 5 3 4 1 4 1 1 2 2 1 2 5 4 5 2 2 2 2 3 4 4 5 6 6 6 6 7 6 6 6 8 10 12 13 14 16 17 18 18 19 20
5 3 3 5 7 8 7 5 5 6 6 7 7 7 6 5 6 6 7 7 6 5 6 7 7 6 6 5 5 5 4 4 4 4 4 5 6 6 5 4 5 9 7 7 6 3 4 1 0 2 1 3 3 2 1 3 6 7 3 3 2 2 4 5 5 5 6 6 6 6 7 6 6 6 7 8 9 10 12 14 16 17 18 19 19
5 4 4 7 5 4 3 2 6 5 2 4 7 8 6 6 7 7 6 7 7 6 5 6 6 6 7 7 5 6 5 5 4 3 3 4 4 5 4 4 4 5 7 6 6 3 2 4 1 1 2 2 2 2 2 1 6 5 3 2 1 3 6 4 6 6 6 7 8 7 7 6 6 6 6 6 7 8 11 13 15 16 17 18 17
5 5 10 6 1 2 2 5 9 9 7 6 7 9 9 8 6 4 4 6 7 6 5 4 6 6 7 7 6 6 5 5 4 4 4 3 4 5 5 5 4 6 6 5 5 5 0 1 4 3 4 3 2 1 0 1 1 3 2 1 1 3 3 3 4 6 6 7 8 8 7 6 6 7 6 6 6 7 9 11 13 14 15 15 15
7 11 5 3 3 4 5 5 8 9 9 7 6 8 8 7 7 7 6 4 5 5 5 6 5 6 7 7 6 5 6 7 5 5 4 4 3 4 4 5 5 4 6 5 6 5 2 1 2 2 1 1 1 2 2 2 1 1 1 1 1 2 3 3 3 4 5 7 8 8 7 5 5 6 7 6 6 8 9 9 9 10 13 15 14
9 7 7 5 4 4 5 6 7 8 9 9 9 9 9 9 9 9 9 10 11 9 7 7 6 5 6 7 5 5 4 7 6 6 6 5 5 5 3 4 5 5 2 5 4 6 5 2 3 2 2 1 2 2 2 2 2 1 0 1 1 1 2 3 3 2 4 6 6 7 6 5 2 5 6 5 5 5 7 9 10 10 12 13 13
8 5 4 4 4 5 6 7 7 8 9 9 9 9 9 10 10 8 9 10 10 10 9 8 8 6 6 6 5 4 3 6 5 5 5 5 4 5 4 3 5 4 2 4 6 4 7 3 1 2 2 2 2 1 2 1 1 1 3 3 3 2 2 3 2 2 3 4 5 5 7 8 6 5 6 6 6 7 8 10 11 11 12 13 14
8 3 6 6 5 6 7 7 7 7 8 8 8 9 11 11 10 10 9 9 9 9 10 9 8 7 7 6 5 5 5 6 5 5 4 4 5 5 5 2 4 4 3 5 5 6 4 6 0 2 1 2 1 1 1 1 2 2 2 1 2 2 2 2 2 2 4 6 4 4 6 7 7 7 7 7 6 7 8 9 10 11 12 13 13
7 5 5 6 7 7 6 6 7 8 8 9 9 8 8 7 8 8 8 6 6 7 8 9 8 8 8 8 8 7 6 6 4 5 5 6 4 5 5 3 4 3 4 5 5 6 7 7 4 0 0 1 0 1 2 2 1 2 2 2 2 2 2 1 1 3 5 6 5 4 6 6 8 8 8 8 7 6 7 8 10 11 12 13 13
5 5 6 6 6 6 5 5 5 7 7 8 9 9 8 8 9 9 8 7 6 6 6 8 8 7 7 7 8 7 7 8 6 5 5 6 5 5 5 4 3 4 5 5 6 6 7 6 5 4 1 2 2 2 3 2 2 2 0 1 1 2 3 3 2 2 3 3 3 4 5 6 7 7 8 8 8 7 7 8 9 11 12 13 13
7 6 6 5 4 4 5 4 4 5 7 7 6 7 7 7 9 9 9 8 7 5 5 6 5 5 6 7 7 7 7 7 7 7 6 5 5 5 5 5 4 5 5 5 6 7 6 6 3 2 3 1 1 2 1 2 3 3 1 0 1 1 1 1 3 3 3 4 3 3 3 3 4 4 7 7 7 7 8 8 9 10 11 12 12
6 5 6 5 5 4 4 4 5 4 4 5 4 5 6 6 6 6 8 8 6 7 7 6 4 4 4 5 6 5 6 6 7 6 7 6 4 5 2 4 5 6 6 5 6 6 6 5 3 4 1 2 1 0 0 1 1 0 2 1 0 2 2 1 0 2 4 4 5 6 4 5 6 5 5 4 4 6 7 8 8 9 11 12 13
6 5 4 5 5 5 5 5 6 6 6 6 5 5 6 7 7 7 8 9 7 6 7 6 5 4 3 3 3 3 3 3 4 5 5 6 7 5 3 4 5 6 6 5 6 6 4 5 4 2 3 2 1 3 3 2 2 1 1 0 1 1 1 1 0 1 2 3 4 4 3 3 4 4 4 3 4 7 5 6 5 7 11 12 13
6 6 5 4 5 5 5 5 5 5 6 6 8 10 7 7 7 7 7 8 8 8 8 7 6 5 4 4 3 5 6 6 5 6 6 5 4 5 7 6 6 6 7 7 6 5 6 5 5 6 5 4 3 3 3 2 1 1 1 1 1 2 1 0 1 0 2 3 5 5 4 1 3 4 3 3 4 3 3 4 4 7 10 12 12
6 6 6 6 5 5 5 6 6 5 5 6 12 13 13 13 8 7 7 7 7 8 7 8 7 6 5 4 4 5 5 5 5 6 5 4 5 5 7 6 6 9 8 6 6 6 6 5 4 4 4 5 3 2 3 2 1 1 1 1 1 1 2 1 1 2 1 4 3 3 5 2 3 4 4 3 3 4 4 4 9 11 11 12 12
4 5 6 5 5 5 5 5 5 5 5 8 12 13 13 12 7 6 8 8 7 7 6 7 6 6 5 4 3 2 2 4 5 5 5 5 5 6 7 6 5 4 6 8 7 5 5 6 5 5 5 5 4 3 3 2 3 1 1 1 1 2 2 2 2 1 1 2 3 3 5 1 2 2 4 4 3 3 4 7 10 10 11 11 11
5 5 4 5 5 5 5 6 5 5 5 9 11 12 12 12 13 8 5 7 8 6 6 6 6 6 4 4 3 3 2 6 5 4 4 5 6 7 6 6 4 5 5 4 5 8 8 6 6 5 5 5 5 4 4 5 3 3 2 1 1 1 1 2 3 2 2 1 1 2 3 3 3 4 4 4 3 4 5 6 9 10 10 11 11
7 6 5 5 5 5 5 5 5 5 6 7 11 13 13 14 14 10 7 8 8 8 7 7 6 6 6 5 5 4 3 4 4 5 5 5 5 5 4 3 3 4 4 6 8 8 6 7 8 7 5 5 6 4 4 5 5 3 3 2 2 3 3 4 3 3 2 1 1 0 2 2 2 3 4 5 3 5 3 5 8 9 10 10 11
8 7 6 5 5 5 6 6 6 5 6 11 11 13 13 14 13 9 6 5 6 6 6 6 7 6 6 5 5 5 4 4 3 5 6 5 5 5 4 4 4 3 3 3 4 4 4 4 5 6 6 4 3 4 4 3 2 2 2 2 2 1 1 2 2 3 3 2 3 2 2 3 2 3 3 4 5 5 4 6 6 8 9 10 11
6 6 5 6 7 6 6 6 6 6 6 12 12 13 14 14 13 7 6 6 6 6 6 6 5 5 5 6 6 6 5 5 5 6 5 5 6 6 5 4 3 3 4 3 4 3 4 5 5 5 4 4 3 5 6 5 2 2 2 3 2 1 1 1 1 3 1 1 2 2 1 2 1 1 4 4 3 4 5 4 5 8 10 10 10
7 7 7 6 6 7 7 6 7 6 6 8 11 13 13 14 9 6 6 5 4 6 6 6 5 5 6 5 6 6 6 5 5 7 7 7 6 6 5 4 3 4 4 3 6 8 7 8 7 7 6 5 4 4 5 4 4 4 4 2 0 1 3 3 3 4 3 1 2 3 3 2 0 0 4 3 3 4 5 6 4 6 9 10 10
7 7 7 6 6 7 8 7 6 7 5 8 12 13 14 13 10 8 7 6 6 5 5 4 4 4 5 8 7 7 6 5 6 7 6 6 6 5 5 5 4 4 2 2 3 4 7 7 7 5 4 4 3 4 5 5 4 3 2 1 1 2 1 0 3 2 5 2 1 4 1 2 1 1 2 4 3 3 4 4 3 6 7 6 9
7 6 6 6 6 5 6 7 8 7 6 7 11 13 14 14 10 7 7 6 7 7 7 5 3 4 4 5 7 6 6 6 9 6 4 3 5 5 5 5 4 4 3 1 3 3 2 2 0 1 1 2 2 2 2 5 5 4 3 2 2 2 2 2 2 3 4 2 0 3 3 2 2 0 0 4 3 3 2 3 4 4 4 3 5
Wind_Direction
190 191 174 196 206 218 208 219 221 236 180 222 197 225 245 217 262 274 297 297 295 306 303 302 297 270 263 297 305 310 329 329 299 279 282 296 306 306 333 194 175 104 134 158 147 136 204 174 73 79 75 74 75 76 81 76 71 65 62 55 51 48 47 46 45 33 20 356 335 326 317 316 310 306 294 302 306 293 287 283 285 288 284 283 288
193 191 192 197 213 220 221 227 229 230 203 234 212 198 222 214 247 263 262 274 287 282 297 297 303 291 290 296 303 326 334 353 330 347 347 347 326 316 336 288 110 143 148 147 126 149 166 112 93 80 78 79 79 81 85 85 78 71 66 63 55 48 45 44 42 40 37 30 22 360 339 335 330 307 300 300 301 300 294 287 281 279 283 287 285
189 184 189 195 198 214 226 227 241 233 215 237 197 208 197 208 220 235 242 267 280 277 285 290 296 314 334 328 314 341 359 1 7 5 2 335 329 309 301 290 147 129 120 124 137 157 133 104 87 85 83 83 80 81 76 72 74 72 67 63 57 52 49 45 42 41 38 34 34 29 21 8 356 349 343 330 317 297 288 301 306 305 302 287 294
185 184 186 183 196 208 218 216 236 233 210 221 223 204 202 212 221 224 236 252 295 299 286 316 315 305 328 299 302 32 348 354 342 337 332 340 328 332 8 50 118 129 141 137 144 144 113 96 99 98 97 92 85 73 78 81 77 74 69 66 63 58 52 47 44 40 38 35 31 31 27 23 18 12 4 353 341 337 286 280 299 305 303 300 288
187 186 184 185 196 209 214 218 227 222 203 206 212 206 205 220 236 237 266 284 312 299 350 359 305 296 290 320 23 38 304 322 300 256 262 289 348 358 48 99 127 137 135 146 152 147 107 106 107 107 109 101 85 76 64 67 64 66 69 64 59 59 53 46 42 40 37 35 31 27 25 23 22 22 18 10 2 353 342 300 283 289 296 296 292
181 185 179 184 198 210 218 228 224 212 188 183 205 201 213 214 235 240 293 268 301 326 337 299 282 278 351 356 17 358 5 352 329 0 22 26 33 87 95 103 117 125 145 154 154 102 101 102 104 107 103 94 89 90 85 78 72 68 64 59 54 51 50 45 41 38 36 35 32 26 22 20 24 25 20 14 7 2 358 353 330 318 310 289 283
189 187 187 191 199 211 217 229 214 192 193 198 197 202 197 226 185 238 320 331 7 288 274 226 206 49 2 327 23 11 47 349 323 340 52 54 44 72 91 108 134 119 118 73 65 84 90 88 93 94 91 89 88 79 64 59 65 61 58 55 50 44 45 45 40 39 37 38 35 31 28 30 31 32 28 29 26 22 18 11 360 355 344 331 320
192 195 195 193 203 214 224 225 210 189 203 193 180 197 200 226 227 180 218 266 233 255 215 149 60 8 331 332 357 44 45 3 18 23 17 70 58 68 93 94 82 78 73 76 75 76 82 85 81 78 80 80 75 71 71 68 61 58 52 46 41 38 37 42 42 37 38 43 43 39 39 37 38 39 39 38 37 34 32 29 24 25 27 22 10
192 194 199 199 203 219 231 223 200 196 197 191 200 197 182 217 230 205 188 201 200 206 111 79 43 337 341 352 1 15 30 3 351 5 14 71 50 47 82 72 75 77 75 83 86 85 78 79 76 74 72 72 73 71 61 60 57 55 53 43 34 29 26 32 42 32 36 52 46 44 44 38 36 41 40 37 39 38 37 40 37 36 38 38 27
191 187 196 205 205 212 229 221 191 190 196 173 225 188 193 188 218 199 199 191 195 164 167 122 356 3 4 5 358 15 1 13 13 29 57 79 55 62 59 56 67 73 87 88 88 88 82 76 74 72 70 69 67 65 60 53 47 45 42 35 29 22 23 29 40 35 37 57 53 49 49 44 40 37 34 33 31 29 30 28 26 24 24 26 22
187 181 190 200 200 214 225 218 178 188 188 185 192 177 176 192 188 195 219 226 193 182 167 163 88 37 29 4 6 5 340 42 32 56 61 73 80 72 59 56 73 85 88 89 88 87 86 82 71 68 69 67 64 62 60 52 43 38 33 27 26 21 20 36 50 47 47 54 62 54 47 42 40 37 31 30 32 28 23 25 19 14 12 15 15
185 180 184 185 193 205 215 184 170 171 177 178 186 179 185 185 195 176 184 159 54 127 118 117 91 71 41 22 28 24 44 35 45 42 53 49 74 73 74 75 82 88 89 91 88 86 85 81 75 70 65 64 60 56 54 50 43 38 33 25 21 22 21 36 53 57 54 55 57 55 49 45 43 40 35 28 27 28 26 23 20 15 9 10 10
184 182 185 182 185 194 189 169 171 172 178 197 196 194 189 187 177 185 169 152 135 96 104 119 105 60 20 39 31 26 35 41 43 29 31 41 55 68 80 83 90 91 93 92 92 89 85 78 78 73 65 60 55 52 49 46 43 38 35 28 18 20 28 37 53 63 64 62 59 54 49 45 43 42 39 32 28 26 24 22 21 18 14 8 8
183 188 189 187 187 184 184 183 173 182 193 203 200 197 179 170 159 148 91 164 188 191 186 111 37 140 110 12 7 356 45 44 39 27 24 34 48 74 77 96 100 100 96 91 86 90 87 82 76 73 64 58 57 50 45 41 40 39 34 27 18 13 31 44 59 63 65 63 60 52 46 43 41 40 38 34 31 28 26 23 23 20 17 11 7
181 181 184 191 194 184 191 182 182 176 173 190 194 202 191 189 184 179 168 40 114 121 113 93 149 137 112 98 24 52 351 17 21 38 27 35 44 75 87 98 99 97 99 96 95 89 84 82 80 73 68 64 56 48 45 44 44 39 35 29 20 5 20 48 58 60 66 66 60 52 47 44 42 41 39 37 35 34 32 29 26 24 20 16 14
170 174 186 191 189 188 182 183 185 172 170 180 192 202 194 196 194 198 158 161 177 119 73 142 138 141 106 56 193 134 71 10 31 28 27 46 36 55 91 103 104 97 84 98 100 92 85 85 81 80 72 68 66 56 52 42 38 34 34 38 29 13 22 45 52 68 69 66 60 55 49 50 46 45 43 41 40 38 35 32 29 26 23 20 19
166 182 190 192 184 177 177 183 168 163 163 182 195 203 196 195 190 182 187 174 186 170 79 88 119 102 138 114 55 159 202 192 122 39 5 40 30 66 86 92 100 99 98 94 93 90 94 87 88 83 79 79 74 67 54 42 33 31 30 41 33 26 17 37 59 60 60 62 60 59 54 52 50 50 48 45 42 39 36 34 31 28 25 23 20
175 190 189 170 174 176 175 168 160 161 176 191 200 200 206 199 197 192 199 201 161 156 113 33 75 86 139 163 169 175 169 205 100 108 49 52 50 55 63 73 93 104 100 108 101 102 100 100 93 90 87 84 77 69 52 44 40 20 37 44 41 34 25 29 44 55 63 66 65 66 60 57 54 51 48 45 42 39 37 35 33 29 26 25 22
186 184 172 171 173 178 180 177 171 176 184 181 191 198 197 207 199 192 204 177 142 160 158 150 91 51 56 76 85 80 140 138 189 119 95 24 37 42 50 63 80 94 100 101 104 102 97 104 101 102 97 81 68 47 44 41 41 41 54 53 52 48 40 36 39 55 61 66 67 69 62 58 57 53 49 45 41 38 37 35 32 30 27 24 21
177 176 171 176 176 182 183 179 177 185 181 191 197 198 190 193 190 212 190 184 179 164 163 161 153 153 44 62 70 75 74 84 127 155 139 131 84 69 55 68 83 86 92 108 109 111 115 108 111 110 107 90 80 77 63 48 29 27 43 54 53 52 48 41 39 52 55 61 64 62 60 57 53 51 48 45 41 39 36 34 32 29 26 23 19
169 172 179 181 182 184 184 184 183 187 192 196 200 182 187 186 188 191 199 206 229 132 148 175 150 160 126 49 70 62 62 61 91 91 139 122 108 130 118 82 79 59 56 69 85 97 110 120 123 122 118 105 96 85 70 57 57 36 54 58 58 54 52 44 36 48 47 55 56 56 56 54 51 49 46 43 41 37 35 32 31 28 25 23 20
168 174 180 189 187 186 188 190 192 188 193 197 191 189 191 187 103 55 42 27 359 316 236 173 166 153 160 152 126 103 58 57 42 92 57 71 152 164 153 146 131 86 65 92 109 113 121 119 109 106 109 116 108 98 71 66 52 43 64 65 61 59 56 49 38 32 36 49 54 53 53 51 51 49 45 42 39 37 34 30 28 26 23 20 20
168 181 188 188 191 190 192 198 192 192 192 188 189 184 151 119 131 134 160 172 162 174 253 160 145 149 158 163 164 168 167 171 190 192 135 125 105 140 154 102 140 133 148 134 130 122 118 116 127 133 155 148 113 118 119 215 95 95 87 75 74 72 65 57 48 42 44 45 46 49 51 51 49 45 42 38 35 33 30 28 25 22 20 17 15
174 178 195 193 190 196 197 192 194 191 198 185 161 144 147 144 145 160 165 166 160 164 186 149 150 144 158 174 175 161 144 159 180 162 161 150 146 152 152 128 97 61 128 103 68 119 137 142 138 161 195 151 136 167 193 200 166 128 60 71 74 76 80 71 58 45 36 39 43 45 47 47 46 41 38 34 32 30 28 25 21 18 15 12 8
197 195 203 194 190 195 196 196 197 196 184 153 139 130 133 166 159 143 144 172 173 159 162 168 160 161 167 163 156 164 176 151 135 139 82 119 131 134 133 102 135 138 150 160 159 177 176 165 137 151 173 141 161 194 200 187 149 146 128 355 336 349 10 91 81 60 42 30 27 33 41 42 42 38 34 32 29 27 25 23 19 14 11 8 5
192 203 197 189 197 203 199 202 198 180 161 131 130 134 124 217 187 149 172 174 159 149 142 140 131 127 136 139 151 147 138 141 137 125 135 130 143 145 141 89 88 137 145 189 158 147 213 162 109 142 140 125 154 199 210 193 195 185 176 193 311 328 354 6 35 37 39 26 7 15 24 27 29 30 31 30 28 25 22 20 17 11 8 6 4
201 205 184 194 202 199 201 199 191 158 126 140 165 149 136 110 227 175 139 144 157 139 142 144 140 145 149 145 140 135 143 150 145 145 150 160 155 156 143 135 121 101 165 131 183 258 178 138 128 120 109 120 159 180 199 215 215 210 193 191 236 261 278 316 294 264 271 265 275 325 348 10 11 14 22 30 27 22 18 16 12 7 5 6 4
206 187 200 195 203 207 205 205 178 138 150 155 160 169 141 162 193 163 157 171 159 144 146 142 144 150 142 133 127 146 146 148 135 135 148 160 157 162 156 151 149 165 180 172 212 221 176 149 108 105 138 126 136 151 196 209 222 221 210 191 230 279 283 294 337 338 340 350 343 338 344 355 10 9 11 24 26 20 15 12 10 5 4 5 4
202 200 194 203 209 211 213 201 167 157 163 159 165 166 149 165 180 168 163 176 167 150 147 146 147 145 137 146 143 143 147 121 111 130 131 142 170 170 173 166 161 148 162 179 207 167 206 197 153 134 330 93 79 105 172 211 217 216 215 216 235 253 296 321 337 337 346 340 341 335 328 339 356 3 3 16 21 17 10 9 6 1 0 2 0
185 178 185 208 212 212 213 209 170 146 169 158 145 151 149 165 169 180 169 162 153 140 150 143 146 141 131 125 133 133 142 138 143 142 139 142 148 167 165 135 155 156 156 162 192 205 156 142 199 127 47 50 21 349 326 219 220 211 201 223 246 279 310 315 324 325 326 323 318 312 310 312 325 338 346 359 9 7 3 4 1 355 354 354 354
160 128 211 225 213 216 225 85 74 75 189 115 108 110 137 154 186 176 169 162 151 149 152 142 144 138 140 138 136 133 144 140 129 124 129 130 128 132 142 147 139 133 148 139 137 216 157 160 64 11 115 56 12 329 325 220 212 197 203 234 277 317 311 309 313 313 309 303 300 295 299 306 304 302 313 328 349 352 351 353 350 346 345 346 348
115 144 223 222 146 174 130 119 121 146 175 184 138 145 158 171 165 160 163 156 143 140 139 131 138 140 140 143 150 146 144 124 122 129 130 117 128 123 128 134 141 145 140 139 142 152 358 155 120 91 85 93 56 44 17 42 184 199 226 244 333 326 317 298 301 303 321 325 317 304 302 291 283 283 296 313 330 334 336 337 337 335 337 339 342
123 207 202 196 194 186 170 150 150 148 171 183 154 152 164 151 139 135 123 93 95 114 127 120 118 138 146 145 153 154 147 134 138 130 124 125 106 92 111 108 121 155 145 134 128 120 70 27 89 111 45 168 48 6 45 66 90 235 245 4 6 295 285 280 288 320 347 326 326 323 325 299 267 276 289 303 320 323 321 319 319 323 328 333 336
187 201 183 184 193 193 181 174 163 149 172 174 163 163 162 156 154 159 147 142 150 158 147 140 144 147 148 138 146 157 167 138 143 142 142 138 132 124 134 132 144 155 172 117 124 138 142 101 100 65 69 29 131 3 54 42 54 17 155 2 351 326 305 311 308 329 327 321 328 343 357 5 283 272 289 301 307 306 303 303 308 313 317 323 329
225 182 148 162 192 198 184 173 162 161 173 171 171 167 167 163 161 160 152 152 156 150 152 154 150 140 137 138 146 148 144 134 148 141 137 141 144 139 139 134 135 137 151 135 133 115 139 126 79 78 59 32 84 20 349 39 38 48 97 60 11 352 3 349 354 357 336 345 350 360 31 33 22 344 324 319 309 300 296 296 299 305 311 318 322
230 139 164 169 185 193 189 180 170 165 168 174 177 178 171 168 161 159 159 161 159 155 152 151 147 149 146 138 157 160 161 146 151 142 142 143 149 143 137 135 131 127 120 124 126 128 143 129 247 136 114 89 53 29 324 28 33 37 54 37 13 13 3 4 13 9 1 351 344 14 35 32 19 4 356 341 323 304 295 295 297 301 307 312 316
200 169 169 177 184 194 189 177 179 171 174 179 181 178 171 158 148 143 152 147 147 151 148 149 151 152 153 158 158 161 157 143 154 150 155 160 152 140 139 136 117 112 87 113 120 124 132 137 130 63 66 146 133 70 38 70 51 27 16 18 6 357 341 319 7 19 352 340 330 359 28 22 11 1 355 355 349 324 302 297 298 300 304 308 312
145 179 185 182 188 189 191 195 170 161 175 185 182 174 164 145 143 155 145 135 139 144 142 142 149 154 154 151 153 158 158 156 163 157 167 161 144 136 132 122 115 99 95 96 114 111 112 119 132 135 25 125 87 34 21 37 119 150 219 304 307 356 8 2 23 20 356 347 340 347 6 5 2 354 352 352 352 346 330 313 304 302 302 305 312
145 174 185 168 166 171 184 175 135 148 175 176 158 155 156 148 146 145 138 133 133 125 126 129 138 145 146 149 156 164 162 154 150 166 164 157 151 156 153 136 126 107 96 104 116 118 126 127 87 97 125 74 132 133 79 34 51 66 71 306 214 1 33 18 360 1 11 350 352 348 342 348 356 351 350 347 347 344 335 323 313 308 304 308 314
138 170 175 168 154 152 147 128 122 136 102 94 129 140 127 123 120 120 114 116 121 122 112 95 94 104 128 144 155 157 153 154 153 162 162 156 146 144 130 123 126 116 115 119 117 125 132 132 131 156 169 167 149 47 166 101 141 115 48 59 263 325 345 314 199 3 350 1 357 334 339 345 354 347 352 341 336 333 331 327 321 315 316 317 318
131 163 179 158 143 128 112 122 130 132 127 127 137 128 130 123 129 128 129 125 125 118 104 98 87 80 87 107 101 97 118 134 155 162 168 155 148 150 164 144 127 117 114 120 127 130 127 123 123 114 143 127 151 154 121 86 129 128 290 269 217 241 275 282 196 155 26 349 336 331 328 353 326 344 336 333 346 347 338 334 318 319 325 323 320
125 147 146 128 132 133 120 109 120 133 135 139 145 144 136 129 138 138 124 127 133 131 126 121 107 110 108 92 118 135 135 139 138 140 143 160 161 166 162 155 144 127 135 132 142 150 143 151 164 157 146 166 170 153 136 161 167 231 174 309 31 317 326 313 304 43 339 13 6 342 316 348 340 325 351 332 326 346 331 331 331 323 321 324 327
146 137 139 140 141 140 133 134 138 144 138 140 143 135 131 129 127 122 130 131 122 129 143 139 137 111 74 70 74 101 105 103 100 117 131 149 154 155 158 164 166 152 137 141 155 158 159 155 158 170 170 165 180 166 164 141 196 157 153 144 167 35 74 80 8 310 90 19 16 334 313 9 9 343 319 311 314 331 329 313 317 324 328 333 336
149 131 130 133 128 126 129 136 138 138 138 145 142 138 140 131 121 121 131 128 134 141 129 120 118 113 97 71 47 38 69 108 107 96 90 91 117 132 136 141 155 174 169 159 154 163 171 151 166 190 161 175 164 163 170 153 170 141 115 137 116 136 129 93 121 257 295 23 9 332 300 347 341 339 322 303 320 315 302 300 310 324 332 334 337
145 140 131 127 135 134 143 147 135 130 121 149 133 126 118 113 103 101 110 121 122 124 125 124 119 115 113 99 84 63 86 104 90 87 97 86 81 97 103 104 108 143 147 157 175 174 150 141 150 169 189 160 152 196 187 171 150 136 160 136 145 127 137 129 237 254 289 328 354 17 310 323 2 360 329 304 332 322 314 317 321 326 331 337 338
143 137 136 144 137 145 140 130 134 126 123 137 131 131 130 127 129 129 136 135 135 138 137 133 126 127 132 136 128 105 64 81 103 102 99 98 102 99 93 92 113 108 106 123 121 129 149 151 151 166 205 163 162 169 169 145 150 162 153 115 125 138 176 208 216 229 257 259 107 144 308 317 19 356 334 324 342 317 292 295 309 324 335 337 340
148 146 142 138 142 138 138 142 138 135 125 136 137 136 135 132 127 120 115 115 117 120 123 125 130 133 138 134 129 126 128 110 109 124 112 104 96 91 89 76 58 41 70 85 101 121 118 115 130 136 147 174 135 136 142 163 175 135 139 123 179 228 258 292 265 249 270 215 165 98 321 293 10 341 310 308 327 307 282 298 307 330 334 335 338
139 135 135 136 145 152 150 146 140 141 138 152 147 144 140 139 132 121 124 127 128 126 118 119 128 137 138 142 137 131 127 123 120 114 111 111 97 96 89 81 63 52 37 357 344 58 96 114 117 120 139 160 144 151 154 156 125 94 100 84 75 10 30 33 346 317 295 200 234 155 198 274 120 344 298 307 310 297 299 287 311 333 331 329 332
138 140 143 151 152 149 150 154 149 151 133 155 151 150 144 140 130 118 126 118 116 120 121 126 135 142 146 148 141 134 125 133 128 126 129 119 104 105 106 90 61 66 50 28 45 56 68 81 91 99 113 129 132 142 149 152 137 140 122 118 71 343 31 16 331 336 320 227 211 198 145 288 229 294 302 294 313 289 287 286 304 323 324 322 328
141 146 143 142 150 155 153 156 161 165 146 155 159 153 148 152 142 141 139 132 123 118 109 120 132 147 159 154 138 130 135 138 136 132 136 125 109 116 109 103 103 93 67 23 58 51 61 74 79 90 126 138 138 143 155 167 178 188 155 355 151 132 71 154 323 289 293 304 225 166 214 248 322 152 297 297 304 232 253 270 301 315 319 322 326
140 137 135 133 129 135 154 160 164 155 140 153 165 158 159 158 148 138 139 132 138 147 146 136 140 145 155 147 134 135 140 145 148 147 141 113 120 123 119 107 105 138 184 111 110 90 62 65 323 100 193 179 164 186 214 203 201 206 218 232 138 233 284 248 246 306 321 340 299 207 324 286 322 66 71 334 308 264 266 280 298 311 314 320 330